Medford, OR

5:16 PM PST on November 20, 2017 (GMT -0800)
Rogue Valley International-Medford

Weather History for KMFR - October, 2011

Change the Weather History Date:

Sunday, October 2, 2011

  Actual Average Record
Temperature  
Mean Temperature 61 °F 62 °F  
Max Temperature 74 °F 78 °F 99 °F (1980)
Min Temperature 48 °F 45 °F 31 °F (1950)
Degree Days  
Heating Degree Days 4 5  
Month to date heating degree days 4 9  
Since 1 July heating degree days 17 78  
Cooling Degree Days 0 1  
Month to date cooling degree days 0 2  
Year to date cooling degree days 783 821  
Growing Degree Days 10 (Base 50)    
Moisture  
Dew Point 45 °F    
Average Humidity 59    
Maximum Humidity 86    
Minimum Humidity 31    
Precipitation  
Precipitation T in 0.02 in 1.62 in (1967)
Month to date precipitation T 0.04  
Year to date precipitation 12.84 10.75  
Snow  
Snow 0.00 in 0.00 in - ()
Month to date snowfall 0.0 0.0  
Since 1 July snowfall 0.0 0.0  
Snow Depth 0.00 in    
Sea Level Pressure  
Sea Level Pressure 29.92 in    
Wind  
Wind Speed 5 mph (NW)    
Max Wind Speed 16 mph    
Max Gust Speed 22 mph    
Visibility 10 miles    
Events Rain    
T = Trace of Precipitation, MM = Missing Value Source: NWS Daily Summary

Daily Weather History Graph

Daily Weather History Graph

Search for Another Location

Airport or City:

Trip Planner

Search our weather history database for the weather conditions in past years. The results will help you decide how hot, cold, wet, or windy it might be!

Date:

Astronomy

Oct. 02, 2011 Rise Set
Actual Time 7:09 AM PDT 6:51 PM PDT
Civil Twilight 6:41 AM PDT 7:19 PM PDT
Nautical Twilight 6:08 AM PDT 7:51 PM PDT
Astronomical Twilight 5:35 AM PDT 8:24 PM PDT
Moon 1:27 PM PDT (10/2) 10:49 PM PDT (10/2)
Length of Visible Light 12h 37m
Length of Day
11h 42m
Waxing Crescent, 36% of the Moon is Illuminated
Oct 2
Waxing Crescent
Oct 3
First Quarter
Oct 11
Full
Oct 19
Last Quarter
Oct 26
New

Hourly Weather History & Observations

Time (PDT) Temp. Dew Point Humidity Pressure Visibility Wind Dir Wind Speed Gust Speed Precip Events Conditions
12:53 AM 57.0 °F 46.9 °F 69% 29.94 in 10.0 mi South 4.6 mph - N/A   Mostly Cloudy
1:53 AM 53.1 °F 46.9 °F 80% 29.95 in 10.0 mi ENE 6.9 mph - N/A   Scattered Clouds
2:53 AM 53.6 °F 46.4 °F 77% 29.97 in 10.0 mi SW 4.6 mph - N/A   Scattered Clouds
3:53 AM 53.1 °F 46.0 °F 77% 29.94 in 10.0 mi Calm Calm - N/A   Mostly Cloudy
4:53 AM 51.1 °F 45.0 °F 80% 29.95 in 10.0 mi Calm Calm - N/A   Scattered Clouds
5:53 AM 51.1 °F 46.0 °F 83% 29.96 in 10.0 mi SE 3.5 mph - N/A   Mostly Cloudy
6:53 AM 50.0 °F 45.0 °F 83% 29.96 in 10.0 mi Calm Calm - N/A   Clear
7:53 AM 48.9 °F 45.0 °F 86% 29.97 in 10.0 mi Calm Calm - N/A   Partly Cloudy
8:53 AM 55.0 °F 46.9 °F 74% 29.97 in 10.0 mi Calm Calm - N/A   Clear
9:53 AM 57.9 °F 46.9 °F 67% 29.97 in 10.0 mi Calm Calm - N/A   Partly Cloudy
10:53 AM 62.6 °F 46.4 °F 55% 29.97 in 10.0 mi Calm Calm - N/A   Clear
11:53 AM 69.1 °F 45.0 °F 42% 29.94 in 10.0 mi Calm Calm - N/A   Overcast
12:53 PM 71.1 °F 41.0 °F 34% 29.91 in 10.0 mi Variable 3.5 mph - N/A   Overcast
1:53 PM 73.9 °F 41.0 °F 30% 29.88 in 10.0 mi Variable 4.6 mph - N/A   Mostly Cloudy
2:53 PM 73.9 °F 42.1 °F 32% 29.86 in 10.0 mi WNW 8.1 mph - N/A   Mostly Cloudy
3:53 PM 71.1 °F 43.0 °F 36% 29.85 in 10.0 mi WNW 12.7 mph - N/A   Mostly Cloudy
4:53 PM 69.1 °F 43.0 °F 39% 29.84 in 10.0 mi WNW 12.7 mph - N/A   Mostly Cloudy
5:53 PM 63.0 °F 44.1 °F 50% 29.85 in 10.0 mi NW 15.0 mph - N/A   Overcast
6:53 PM 62.1 °F 45.0 °F 53% 29.87 in 10.0 mi NW 12.7 mph - N/A   Overcast
7:53 PM 59.0 °F 46.9 °F 64% 29.88 in 10.0 mi NW 11.5 mph - N/A   Overcast
8:53 PM 57.9 °F 46.0 °F 65% 29.89 in 10.0 mi North 6.9 mph - N/A   Mostly Cloudy
9:53 PM 57.2 °F 46.4 °F 67% 29.91 in 10.0 mi NNW 4.6 mph - N/A   Overcast
10:53 PM 57.9 °F 46.0 °F 65% 29.89 in 10.0 mi NW 4.6 mph - N/A   Overcast
11:53 PM 57.2 °F 48.2 °F 72% 29.91 in 10.0 mi WNW 3.5 mph - N/A Rain Light Rain